Home > Weather > Sultanpur > Past weeks

Flag for India Past Weather in Sultanpur, Uttar Pradesh, India — Yesterday and Last 2 Weeks

Now
99 °F

Haze.


Feels Like: 106 °F
Forecast: 85 / 105 °F
Wind: 13 mph from West

Location: Lucknow / Amausi

Current Time: May 25, 2016 at 12:49:50 PM

Latest Report: May 25, 2016 at 12:00 PM


Visibility: 3 mi

Pressure: 29.50 "Hg

Humidity: 39%

Dew Point: 70 °F

Location of SultanpurLocation

Past Weather in Sultanpur — Graph

°F

Sultanpur Temperature Yesterday

Maximum temperature yesterday: 99 °F (at 3:00 PM)
Minimum temperature yesterday: 73 °F (at 3:00 AM)
Average temperature yesterday: 89 °F

High & Low Weather Summary for the Past Weeks

 TemperatureHumidityPressure
High115 °F (May 16, 1:30 PM)100% (May 22, 9:00 AM)29.80 "Hg (May 22, 9:00 AM)
Low73 °F (May 24, 3:00 AM)12% (May 16, 5:00 PM)29.39 "Hg (May 17, 6:30 PM)
Average96 °F47%29.54 "Hg
* Reported May 10 11:30 AM — May 25 11:30 AM, Sultanpur, Weather by CustomWeather, © 2016

Note: Actual official high and low records may vary slightly from our data, if they occured in-between our weather recording intervals... More about our weather records

Advertising

Sultanpur Weather History for the Previous 24 Hours

Scroll right to see more
 ConditionsComfort  
Time TempWeatherWind HumidityBarometerVisibility
11:30 AM
Wed, May 25
100 °FHaze.9 mph33%29.50 "Hg3 mi
11:00 AM99 °FHaze.9 mph35%29.50 "Hg3 mi
10:30 AM97 °FHaze.8 mph39%29.50 "Hg3 mi
10:00 AM95 °FHaze.6 mph41%29.50 "Hg3 mi
9:30 AM95 °FHaze.5 mph41%29.50 "Hg3 mi
9:00 AM93 °FHaze.7 mph49%29.53 "Hg3 mi
8:30 AM90 °FHaze.2 mph55%29.53 "Hg3 mi
8:00 AM88 °FHaze.2 mph59%29.50 "Hg2 mi
7:30 AM84 °FHaze.No wind66%29.50 "Hg2 mi
7:00 AM82 °FHaze.No wind70%29.50 "Hg2 mi
6:30 AM82 °FScattered clouds.No wind70%29.50 "Hg2 mi
6:00 AM81 °FScattered clouds.2 mph74%29.47 "Hg2 mi
5:30 AM81 °FPassing clouds.2 mph74%29.47 "Hg2 mi
5:00 AM84 °FPartly cloudy.2 mph74%29.47 "Hg2 mi
4:00 AM84 °FPartly cloudy.2 mph74%29.47 "Hg2 mi
3:00 AM84 °FPartly cloudy.2 mph74%29.47 "Hg1 mi
2:00 AM84 °FThunderstorms. Partly cloudy.No wind74%29.47 "Hg1 mi
1:00 AM90 °FPassing clouds.No wind55%29.47 "Hg2 mi
12:00 AM90 °FHaze.No wind59%29.50 "Hg2 mi
11:00 PM
Tue, May 24
90 °FHaze.No wind63%29.50 "Hg2 mi
10:00 PM90 °FHaze.2 mph55%29.50 "Hg2 mi
9:00 PM90 °FHaze.No wind63%29.50 "Hg2 mi
8:00 PM91 °FPassing clouds.No wind56%29.47 "Hg2 mi
7:30 PM91 °FHaze.No wind56%29.47 "Hg3 mi
7:00 PM93 °FHaze.No wind49%29.47 "Hg3 mi
6:00 PM97 °FHaze.6 mph42%29.45 "Hg3 mi
5:00 PM99 °FHaze.6 mph39%29.45 "Hg3 mi
3:00 PM99 °FScattered clouds.6 mph37%29.50 "Hg3 mi
1:00 PM95 °FScattered clouds.8 mph50%29.59 "Hg3 mi
12:00 PM93 °FScattered clouds.5 mph53%29.62 "Hg3 mi
Weather by CustomWeather, © 2016

See weather overviewHow to use our weather pages